Regional Weather Roundup
Issued by NWS

Home | Current Version | Previous Version | Graphics & Text | Print | Product List | Glossary On
Versions: 1 2 3 4 5 6 7 8 9 10 11 12 13 14 15 16 17 18 19 20 21 22 23 24 25 26 27 28 29 30 31 32 33 34 35 36 37 38 39 40 41 42 43 44 45 46 47 48 49 50
000
ASUS43 KTOP 301808
RWRKS

WEATHER ROUNDUP FOR KANSAS
NATIONAL WEATHER SERVICE GOODLAND KS
100 PM CDT SUN AUG 30 2015

NOTE:  "FAIR" INDICATES FEW OR NO CLOUDS BELOW 12,000 FEET WITH NO
SIGNIFICANT WEATHER AND/OR OBSTRUCTIONS TO VISIBILITY.

KSZ001>006-013>018-027>032-041>047-301900-
NORTHWEST KANSAS

CITY           SKY/WX    TMP DP  RH WIND       PRES   REMARKS
GOODLAND       MOSUNNY   87  43  21 S18G28    30.06F
6HR MIN TEMP:  62; 6HR MAX TEMP:  87;

HAYS           SUNNY     82  57  42 SE10G16   30.04F
HILL CITY      SUNNY     92  48  22 S10       30.02F
6HR MIN TEMP:  52; 6HR MAX TEMP:  92;

RUSSELL        SUNNY     80  62  54 E14       30.04F
6HR MIN TEMP:  53; 6HR MAX TEMP:  80;

$$

KSZ061>065-074>080-084>089-301900-
SOUTHWEST KANSAS

CITY           SKY/WX    TMP DP  RH WIND       PRES   REMARKS
DODGE CITY     SUNNY     85  52  32 SE7       30.07F
6HR MIN TEMP:  54; 6HR MAX TEMP:  85;

ELKHART          N/A     87  59  38 S9          N/A
GARDEN CITY    SUNNY     87  45  23 S9        30.06F
6HR MIN TEMP:  52; 6HR MAX TEMP:  87;

GREAT BEND     SUNNY     77  61  57 SE8       30.06F
LIBERAL        SUNNY     88  48  25 S6        30.09F
PRATT          SUNNY     75  59  57 CALM      30.08F
$$

KSZ066>073-081>083-090>101-301900-
SOUTHEAST KANSAS

CITY           SKY/WX    TMP DP  RH WIND       PRES   REMARKS
CHANUTE        PTSUNNY   78  70  76 N5        30.03F
6HR MIN TEMP:  67; 6HR MAX TEMP:  78;

COFFEYVILLE    CLOUDY    81  70  69 NE7       30.01F
6HR MIN TEMP:  64; 6HR MAX TEMP:  82; 6HR PCP: TRACE;

HUTCHINSON     MOSUNNY   76  63  64 CALM      30.06F
6HR MIN TEMP:  53; 6HR MAX TEMP:  78;

MEDICINE LODGE   N/A     79  62  56 SE6       30.04F
NEWTON         PTSUNNY   75  63  64 E3        30.08F
PARSONS        CLOUDY    80  71  74 N5        30.03F
6HR MIN TEMP:  67; 6HR MAX TEMP:  81;

WICHITA INTL   PTSUNNY   79  64  60 CALM      30.04F
6HR MIN TEMP:  63; 6HR MAX TEMP:  80;

WICHITA JABRA  MOSUNNY   78  65  63 E5        30.04F
6HR MIN TEMP:  61; 6HR MAX TEMP:  79;

WICHITA MCCONL DRIZZLE   79  56  45 NE6       30.04F
$$

KSZ007>012-019>026-033>040-048>060-102>105-301900-
NORTHEAST KANSAS

CITY           SKY/WX    TMP DP  RH WIND       PRES   REMARKS
CONCORDIA      CLOUDY    69  63  81 S10       30.08F
6HR MIN TEMP:  58; 6HR MAX TEMP:  69;

EMPORIA        MOSUNNY   77  69  76 NE6       30.04F
6HR MIN TEMP:  64; 6HR MAX TEMP:  78;

LAWRENCE       PTSUNNY   78  69  73 E5        30.04F
6HR MIN TEMP:  66; 6HR MAX TEMP:  79;

MANHATTAN      MOSUNNY   76  67  73 VRB5      30.05F
6HR MIN TEMP:  62; 6HR MAX TEMP:  76;

MARYSVILLE     CLOUDY   N/A N/A N/A S3        30.07F
OLATHE IND     MOSUNNY   79  70  74 E7        30.04F
OLATHE EXE     PTSUNNY   79  70  74 SE7       30.04F
6HR MIN TEMP:  67; 6HR MAX TEMP:  79;

SALINA         PTSUNNY   74  63  68 S3        30.06F
6HR MIN TEMP:  62; 6HR MAX TEMP:  74;

TOPEKA BILLARD CLOUDY    74  69  85 CALM      30.05F
6HR MIN TEMP:  63; 6HR MAX TEMP:  75;

TOPEKA FORBES  CLOUDY    75  68  78 CALM      30.05F HAZE
6HR MIN TEMP:  64; 6HR MAX TEMP:  75;

$$



USA.gov is the U.S. government's official web portal to all federal, state and local government web resources and services.